TimeMDT,TemperatureF,Dew PointF,Humidity,Sea Level PressureIn,VisibilityMPH,Wind Direction,Wind SpeedMPH,Gust SpeedMPH,PrecipitationIn,Events,Conditions,WindDirDegrees,DateUTC
12:56 AM,50.0,24.1,36,29.90,10.0,SSE,10.4,-,N/A,,Clear,160,2013-04-28 06:56:00
1:56 AM,46.9,25.2,43,29.91,10.0,SSE,9.2,-,N/A,,Clear,160,2013-04-28 07:56:00
2:56 AM,48.9,23.0,36,29.89,10.0,SSE,9.2,-,N/A,,Clear,160,2013-04-28 08:56:00
3:56 AM,46.9,23.0,39,29.89,10.0,SSE,9.2,-,N/A,,Partly Cloudy,160,2013-04-28 09:56:00
4:56 AM,47.8,23.0,38,29.88,10.0,SSE,10.4,-,N/A,,Scattered Clouds,160,2013-04-28 10:56:00
5:56 AM,47.8,22.1,36,29.88,10.0,SSE,10.4,-,N/A,,Overcast,160,2013-04-28 11:56:00
6:56 AM,47.8,24.1,39,29.88,10.0,South,9.2,-,N/A,,Clear,170,2013-04-28 12:56:00
7:56 AM,50.9,24.1,35,29.88,10.0,South,11.5,-,N/A,,Scattered Clouds,170,2013-04-28 13:56:00
8:56 AM,50.9,24.1,35,29.87,10.0,SSW,15.0,-,N/A,,Overcast,200,2013-04-28 14:56:00
9:56 AM,52.0,24.1,34,29.88,10.0,SSW,17.3,-,N/A,,Partly Cloudy,200,2013-04-28 15:56:00
10:56 AM,52.9,23.0,31,29.88,10.0,SSW,16.1,-,N/A,,Scattered Clouds,210,2013-04-28 16:56:00
11:56 AM,52.9,21.0,29,29.90,10.0,SSW,15.0,-,N/A,,Scattered Clouds,200,2013-04-28 17:56:00
12:56 PM,54.0,21.0,28,29.91,10.0,SSW,16.1,-,N/A,,Scattered Clouds,210,2013-04-28 18:56:00
1:56 PM,54.9,23.0,29,29.90,10.0,WSW,13.8,-,N/A,,Mostly Cloudy,250,2013-04-28 19:56:00
2:56 PM,55.9,25.2,31,29.88,10.0,WSW,15.0,20.7,N/A,,Scattered Clouds,240,2013-04-28 20:56:00
3:56 PM,55.9,24.1,29,29.86,10.0,SW,15.0,-,N/A,,Mostly Cloudy,230,2013-04-28 21:56:00
4:56 PM,54.9,26.1,33,29.84,10.0,SW,17.3,-,N/A,,Scattered Clouds,220,2013-04-28 22:56:00
5:56 PM,59.0,27.1,30,29.80,10.0,SSW,17.3,-,N/A,,Mostly Cloudy,210,2013-04-28 23:56:00
6:56 PM,56.8,28.0,33,29.80,10.0,SSW,15.0,-,N/A,,Mostly Cloudy,210,2013-04-29 00:56:00
7:56 PM,54.0,29.1,39,29.79,10.0,West,9.2,-,N/A,,Overcast,280,2013-04-29 01:56:00
8:56 PM,52.9,25.2,34,29.80,10.0,SW,13.8,24.2,N/A,,Overcast,220,2013-04-29 02:56:00
9:56 PM,48.9,25.2,40,29.82,10.0,South,10.4,-,N/A,,Mostly Cloudy,190,2013-04-29 03:56:00
10:56 PM,45.9,24.1,42,29.81,10.0,South,16.1,-,N/A,,Clear,170,2013-04-29 04:56:00
11:56 PM,45.0,21.0,39,29.80,10.0,South,16.1,-,N/A,,Clear,180,2013-04-29 05:56:00